Content
SEND FEEDBACK

Daily
Averages
Monthly
Summary
United States of America

CARLISLE, SOUTH CAROLINA


Home > North America > United States > South Carolina
Elevation: 493 feet     Latitude: 34 38N     Longitude: 081 31W

WEATHER
 
SELECT A DAY
Number of Records: 125,213;   Date Range: 12/16/08 - 7/9/14
 
SHARE

PRINT THIS DATA

[ ← Previous Day ]
WEATHER ALMANAC - FEBRUARY 13, 2013
[ Next Day → ]
[ °C ]   °F
Weather ElementAverageHighLow
Temperature46.5 °F50 °F (3:15 pm)41 °F (10:55 pm)
Dewpoint45.1 °F50 °F (3:15 pm)35.6 °F (11:35 pm)
Humidity95.1 %100 % (12:35 am)71 % (9:35 pm)
Barometer29.79 in29.91 in (12:35 am)29.69 in (1:15 pm)
Wind Speed4.8 mph11.5 mph (2:35 pm)
Wind Gust18.4 mph (3:15 pm)
Weather ElementAverage
Visibility7.8 mi
Wind DirectionSE (140.3 °)

Weather ElementTotal
Precipitation0.16 in
Heating Degree Days19.5 (Base 65)
Averaged from 67 records on February 13, 2013
WEATHER CONDITIONS BREAKOUT
WIND DIRECTION BREAKOUT
WEATHER BY HOUR - FEBRUARY 13, 2013
[ °C ]   °F
Local TimeTemperatureDewpointHumidityBarometerVisibilityWind DirectionWind SpeedGust SpeedPrecipitationEventsConditions
12:35 AM46.4 °F46.4 °F100 %29.91 in10.0 miNorth (10°)3.5 mph0.06 inRainRain
12:55 AM46.4 °F46.4 °F100 %29.90 in10.0 miNNE (20°)3.5 mph0.06 inLight Drizzle
1:15 AM46.4 °F46.4 °F100 %29.89 in10.0 miNorth (10°)5.8 mphThunderstormOvercast
1:35 AM46.4 °F46.4 °F100 %29.88 in10.0 miNNE (20°)5.8 mphOvercast
1:55 AM46.4 °F46.4 °F100 %29.87 in10.0 miNorth (10°)4.6 mphOvercast
2:15 AM46.4 °F46.4 °F100 %29.86 in10.0 miNNE (30°)5.8 mphThunderstormOvercast
2:35 AM46.4 °F46.4 °F100 %29.86 in10.0 miNNE (30°)6.9 mphThunderstorm
2:55 AM46.4 °F44.6 °F93 %29.86 in10.0 miNNE (30°)6.9 mphThunderstormOvercast
3:35 AM46.4 °F42.8 °F87 %29.85 in7.0 miNE (50°)4.6 mphRain-ThunderstormRain
3:55 AM44.6 °F44.6 °F100 %29.84 in10.0 miNE (50°)3.5 mphRainLight Rain
4:15 AM44.6 °F44.6 °F100 %29.83 in7.0 miEast (80°)5.8 mphThunderstormDrizzle
4:35 AM44.6 °F44.6 °F100 %29.83 in10.0 miEast (80°)4.6 mphOvercast
5:15 AM44.6 °F44.6 °F100 %29.81 in10.0 miEast (80°)3.5 mphOvercast
5:35 AM44.6 °F44.6 °F100 %29.81 in10.0 miNE (40°)3.5 mphOvercast
5:55 AM44.6 °F44.6 °F100 %29.80 in10.0 miNNE (20°)4.6 mphOvercast
6:15 AM44.6 °F44.6 °F100 %29.79 in10.0 miNE (50°)5.8 mphOvercast
6:35 AM44.6 °F44.6 °F100 %29.81 in10.0 miNNE (30°)5.8 mphOvercast
6:55 AM44.6 °F44.6 °F100 %29.80 in10.0 miNNE (30°)5.8 mphThunderstormOvercast
7:15 AM44.6 °F44.6 °F100 %29.80 in7.0 miNE (40°)5.8 mphDrizzle
7:35 AM44.6 °F44.6 °F100 %29.80 in5.0 miNE (40°)5.8 mphOvercast
7:55 AM44.6 °F44.6 °F100 %29.79 in7.0 miENE (70°)5.8 mphOvercast
8:15 AM44.6 °F44.6 °F100 %29.78 in5.0 miENE (70°)5.8 mphOvercast
8:35 AM44.6 °F44.6 °F100 %29.79 in4.0 miEast (80°)5.8 mphOvercast
8:55 AM44.6 °F44.6 °F100 %29.83 in7.0 miCalmOvercast
9:15 AM44.6 °F44.6 °F100 %29.80 in1.2 miEast (80°)4.6 mphRainLight Rain
9:35 AM44.6 °F44.6 °F100 %29.80 in1.5 miEast (80°)4.6 mphDrizzle
9:55 AM44.6 °F44.6 °F100 %29.78 in2.0 miNE (40°)4.6 mphLight Drizzle
10:15 AM44.6 °F44.6 °F100 %29.77 in2.0 miENE (70°)4.6 mphLight Drizzle
10:55 AM46.4 °F46.4 °F100 %29.77 in1.5 miCalmOvercast
11:15 AM46.4 °F46.4 °F100 %29.73 in2.0 miEast (100°)5.8 mphOvercast
11:35 AM46.4 °F46.4 °F100 %29.76 in2.5 miSSE (150°)3.5 mphOvercast
11:55 AM46.4 °F46.4 °F100 %29.71 in2.0 miSE (130°)5.8 mphOvercast
12:35 PM46.4 °F46.4 °F100 %29.72 in1.2 miCalmOvercast
12:55 PM46.4 °F46.4 °F100 %29.72 in1.2 miSouth (180°)3.5 mphDrizzle
1:15 PM46.4 °F46.4 °F100 %29.69 in1.5 miWSW (240°)3.5 mphLight Drizzle
1:35 PM46.4 °F46.4 °F100 %29.71 in1.5 miSSW (210°)4.6 mph0.02 inLight Drizzle
1:55 PM46.4 °F46.4 °F100 %29.71 in1.8 miSW (230°)4.6 mph0.02 inOvercast
2:15 PM48.2 °F48.2 °F100 %29.69 in4.0 miSW (230°)4.6 mphOvercast
2:35 PM48.2 °F48.2 °F100 %29.71 in10.0 miSW (230°)11.5 mph16.1 mphOvercast
2:55 PM48.2 °F48.2 °F100 %29.71 in10.0 miSW (230°)5.8 mphOvercast
3:15 PM50.0 °F50.0 °F100 %29.71 in10.0 miSW (230°)8.1 mph18.4 mphOvercast
3:35 PM50.0 °F50.0 °F100 %29.70 in10.0 miSW (220°)8.1 mphOvercast
3:55 PM50.0 °F48.2 °F94 %29.71 in10.0 miSW (220°)8.1 mphOvercast
4:15 PM50.0 °F48.2 °F94 %29.71 in10.0 miSW (220°)6.9 mph17.3 mphOvercast
4:35 PM50.0 °F48.2 °F94 %29.70 in10.0 miSW (220°)8.1 mph18.4 mphMostly Cloudy
4:55 PM50.0 °F48.2 °F94 %29.69 in10.0 miSW (220°)4.6 mphMostly Cloudy
5:15 PM50.0 °F48.2 °F94 %29.70 in10.0 miSW (230°)4.6 mphScattered Clouds
5:35 PM50.0 °F48.2 °F94 %29.73 in10.0 miSW (230°)4.6 mphClear
5:55 PM50.0 °F48.2 °F94 %29.73 in10.0 miSW (220°)4.6 mphClear
6:15 PM50.0 °F46.4 °F87 %29.74 in10.0 miSSW (210°)4.6 mphClear
6:35 PM50.0 °F48.2 °F94 %29.74 in10.0 miSW (230°)3.5 mphClear
6:55 PM50.0 °F48.2 °F94 %29.74 in10.0 miWSW (240°)4.6 mphClear
7:15 PM50.0 °F46.4 °F87 %29.76 in10.0 miWSW (240°)3.5 mphClear
7:35 PM50.0 °F46.4 °F87 %29.77 in10.0 miWSW (250°)3.5 mphClear
7:55 PM50.0 °F46.4 °F87 %29.78 in10.0 miWest (260°)3.5 mphScattered Clouds
8:15 PM48.2 °F46.4 °F93 %29.79 in10.0 miWest (280°)5.8 mphClear
8:35 PM48.2 °F46.4 °F93 %29.80 in10.0 miWest (270°)4.6 mphMostly Cloudy
8:55 PM48.2 °F46.4 °F93 %29.80 in10.0 miWest (270°)5.8 mphOvercast
9:15 PM48.2 °F42.8 °F82 %29.82 in10.0 miWest (280°)8.1 mphMostly Cloudy
9:35 PM46.4 °F37.4 °F71 %29.83 in10.0 miWest (280°)5.8 mphScattered Clouds
9:55 PM46.4 °F37.4 °F71 %29.85 in10.0 miWest (280°)4.6 mphClear
10:15 PM44.6 °F37.4 °F76 %29.86 in10.0 miWNW (300°)3.5 mphClear
10:35 PM42.8 °F37.4 °F81 %29.86 in10.0 miWest (270°)3.5 mphClear
10:55 PM41.0 °F37.4 °F87 %29.87 in10.0 miCalmClear
11:15 PM41.0 °F37.4 °F87 %29.87 in10.0 miWest (270°)4.6 mphClear
11:35 PM41.0 °F35.6 °F81 %29.89 in10.0 miWNW (290°)4.6 mphClear
11:55 PM41.0 °F35.6 °F81 %29.89 in10.0 miCalmClear
Hourly data recorded from KDCM, located miles away from Carlisle, South Carolina







STORIES FROM OUR PARTNERS